Theta_e
345 340 337 337 334 331 329 327 329 326 326 323 322 323 323 322 323 325 323 324 327 323
335 334 331 332 331 327 327 324 324 323 323 323 323 323 324 321 322 322 323 324 326 323
329 328 327 327 325 324 324 323 322 321 322 322 322 322 323 322 323 321 319 319 321 320
324 324 324 323 323 322 323 320 319 319 319 319 319 321 321 321 320 318 319 320 319 319
323 323 322 321 321 321 319 319 319 318 318 318 318 320 319 318 318 318 318 318 318 318
321 320 319 319 319 318 318 318 318 318 318 318 318 319 319 318 318 318 318 318 317 317
317 317 317 317 317 317 318 317 318 319 318 318 318 318 316 316 316 317 317 318 317 317
315 316 315 316 316 317 317 318 318 318 318 317 316 309 309 312 313 315 315 316 317 318
313 313 314 314 315 316 317 317 316 315 315 315 312 299 299 301 309 314 313 313 315 317
311 312 312 313 314 314 315 316 315 315 314 311 309 297 297 297 308 315 315 316 316 315
310 310 311 312 312 312 314 315 315 313 312 311 305 297 295 296 314 314 315 316 317 316
308 309 309 308 310 311 312 314 314 313 311 310 308 296 295 298 312 309 312 315 313 313
308 307 306 307 309 310 311 313 311 311 310 304 305 296 295 296 305 306 309 319 309 302
307 307 307 309 310 309 310 311 310 309 310 308 303 304 295 295 300 302 307 313 311 313
Wind_Speed
11 8 8 9 6 7 6 6 5 5 5 5 6 6 6 7 7 8 8 9 8 9
12 13 11 10 8 7 6 6 5 4 4 5 6 6 8 7 7 6 8 8 8 8
12 12 11 10 10 8 6 5 4 4 5 5 6 7 8 8 8 9 7 8 9 10
12 11 10 9 8 6 5 4 5 6 6 6 7 8 8 9 10 10 10 10 10 11
11 10 8 7 6 5 5 5 6 6 7 8 8 8 9 9 9 10 11 11 11 12
9 8 7 7 6 5 6 6 7 7 8 8 9 8 8 11 12 12 12 11 13 12
8 7 6 5 6 6 6 6 7 7 7 8 9 11 12 12 13 13 12 9 9 9
6 6 5 6 6 5 5 6 6 7 9 13 8 10 13 13 14 14 12 10 12 9
6 5 5 5 5 5 6 8 9 9 8 8 7 12 17 14 12 11 8 8 9 9
5 6 6 5 6 8 6 7 7 8 8 6 7 15 18 20 11 7 7 6 7 7
7 6 6 7 7 6 6 4 4 5 5 6 7 14 17 23 8 7 8 8 7 7
7 7 8 6 6 6 7 6 5 6 6 8 7 9 14 17 9 10 9 6 8 8
8 7 5 5 5 5 5 5 6 7 6 7 9 9 14 15 8 10 8 6 7 15
7 5 1 3 4 4 4 5 7 8 6 8 8 10 15 17 9 9 8 8 10 9
Wind_Direction
127 108 99 70 85 77 87 73 55 36 26 11 354 358 345 311 340 334 315 318 317 307
86 84 91 94 97 82 58 108 63 34 8 3 359 354 343 315 311 319 310 308 290 304
96 92 92 88 81 72 72 57 36 12 3 356 349 345 344 337 332 314 315 312 324 304
89 85 81 77 71 65 55 23 13 0 351 344 339 349 338 324 305 330 318 312 304 310
88 85 78 73 62 46 24 12 358 353 347 344 345 344 332 320 320 318 312 311 308 308
84 81 66 57 40 22 11 7 2 355 348 347 344 331 335 340 329 322 319 317 327 324
71 62 53 36 27 18 11 3 1 358 338 343 343 8 3 342 328 319 323 326 313 308
69 56 42 28 28 19 10 1 354 353 1 33 0 25 352 340 317 314 319 327 316 321
43 45 34 23 30 22 18 15 10 19 20 17 42 4 2 346 312 303 316 318 325 324
34 33 24 21 31 28 13 22 15 13 16 60 40 16 356 335 299 318 317 320 325 327
27 23 19 30 36 13 4 19 344 32 29 28 53 21 354 329 321 335 347 336 322 9
25 28 29 16 24 19 351 337 1 50 35 16 43 32 358 341 330 3 332 308 61 25
34 28 19 358 14 15 336 341 19 21 47 44 18 48 5 359 349 352 332 315 143 60
28 345 49 10 44 356 345 7 23 19 358 48 28 13 1 349 351 351 337 358 9 353